Time,TemperatureF,DewpointF,PressureIn,WindDirection,WindDirectionDegrees,WindSpeedMPH,WindSpeedGustMPH,Humidity,HourlyPrecipIn,Conditions,Clouds,dailyrainin,SoftwareType,DateUTC
2013-02-22 00:04:00,44.1,34.6,30.16,NW,321,0.0,0.0,69,0.00,,,0.00,VWS V14.01,2013-02-22 08:04:00,
2013-02-22 00:09:00,44.0,34.1,30.16,NW,321,0.0,2.0,68,0.00,,,0.00,VWS V14.01,2013-02-22 08:09:00,
2013-02-22 00:14:00,44.2,34.3,30.16,NW,321,0.0,2.0,68,0.00,,,0.00,VWS V14.01,2013-02-22 08:14:00,
2013-02-22 00:19:00,44.3,34.0,30.16,NW,321,0.0,2.0,67,0.00,,,0.00,VWS V14.01,2013-02-22 08:19:00,
2013-02-22 00:24:00,44.5,34.2,30.16,NW,321,0.0,2.0,67,0.00,,,0.00,VWS V14.01,2013-02-22 08:24:00,
2013-02-22 00:29:00,44.6,34.3,30.16,NW,321,0.0,2.0,67,0.00,,,0.00,VWS V14.01,2013-02-22 08:29:00,
2013-02-22 00:34:00,44.7,34.0,30.16,NW,321,0.0,2.0,66,0.00,,,0.00,VWS V14.01,2013-02-22 08:34:00,
2013-02-22 00:39:00,44.7,34.0,30.16,NW,321,0.0,2.0,66,0.00,,,0.00,VWS V14.01,2013-02-22 08:39:00,
2013-02-22 00:44:00,44.8,34.2,30.16,NW,321,0.0,2.0,66,0.00,,,0.00,VWS V14.01,2013-02-22 08:44:00,
2013-02-22 00:49:00,44.7,34.0,30.16,NW,321,0.0,2.0,66,0.00,,,0.00,VWS V14.01,2013-02-22 08:49:00,
2013-02-22 00:54:00,44.6,34.3,30.16,NW,321,0.0,2.0,67,0.00,,,0.00,VWS V14.01,2013-02-22 08:54:00,
2013-02-22 00:59:00,44.4,33.8,30.16,NW,321,0.0,2.0,66,0.00,,,0.00,VWS V14.01,2013-02-22 08:59:00,
2013-02-22 01:04:00,44.3,33.7,30.16,NW,321,0.0,0.0,66,0.00,,,0.00,VWS V14.01,2013-02-22 09:04:00,
2013-02-22 01:09:00,44.3,33.7,30.17,NW,321,0.0,0.0,66,0.00,,,0.00,VWS V14.01,2013-02-22 09:09:00,
2013-02-22 01:14:00,44.3,33.7,30.17,NW,321,0.0,0.0,66,0.00,,,0.00,VWS V14.01,2013-02-22 09:14:00,
2013-02-22 01:19:00,44.2,33.6,30.17,NW,321,0.0,0.0,66,0.00,,,0.00,VWS V14.01,2013-02-22 09:19:00,
2013-02-22 01:24:00,44.1,33.5,30.17,NW,321,0.0,0.0,66,0.00,,,0.00,VWS V14.01,2013-02-22 09:24:00,
2013-02-22 01:29:00,44.0,33.8,30.17,NW,321,0.0,0.0,67,0.00,,,0.00,VWS V14.01,2013-02-22 09:29:00,
2013-02-22 01:34:00,43.9,33.7,30.17,NW,321,0.0,0.0,67,0.00,,,0.00,VWS V14.01,2013-02-22 09:34:00,
2013-02-22 01:39:00,43.7,33.5,30.17,NW,321,0.0,0.0,67,0.00,,,0.00,VWS V14.01,2013-02-22 09:39:00,
2013-02-22 01:44:00,42.9,33.4,30.17,NW,321,0.0,0.0,69,0.00,,,0.00,VWS V14.01,2013-02-22 09:44:00,
2013-02-22 01:49:00,42.3,33.2,30.17,NW,321,0.0,0.0,70,0.00,,,0.00,VWS V14.01,2013-02-22 09:49:00,
2013-02-22 01:54:00,41.9,33.2,30.17,NW,321,0.0,0.0,71,0.00,,,0.00,VWS V14.01,2013-02-22 09:54:00,
2013-02-22 01:59:00,41.5,33.2,30.17,NW,321,0.0,0.0,72,0.00,,,0.00,VWS V14.01,2013-02-22 09:59:00,
2013-02-22 02:04:00,41.1,33.1,30.17,NW,321,0.0,0.0,73,0.00,,,0.00,VWS V14.01,2013-02-22 10:04:00,
2013-02-22 02:09:00,41.1,33.5,30.17,NW,321,0.0,0.0,74,0.00,,,0.00,VWS V14.01,2013-02-22 10:09:00,
2013-02-22 02:14:00,40.8,33.2,30.17,NW,321,0.0,0.0,74,0.00,,,0.00,VWS V14.01,2013-02-22 10:14:00,
2013-02-22 02:19:00,40.5,33.2,30.17,NW,321,0.0,0.0,75,0.00,,,0.00,VWS V14.01,2013-02-22 10:19:00,
2013-02-22 02:24:00,40.4,33.1,30.17,NW,321,0.0,0.0,75,0.00,,,0.00,VWS V14.01,2013-02-22 10:24:00,
2013-02-22 02:29:00,40.3,33.3,30.17,NW,321,0.0,0.0,76,0.00,,,0.00,VWS V14.01,2013-02-22 10:29:00,
2013-02-22 02:34:00,40.1,32.8,30.17,NW,321,0.0,0.0,75,0.00,,,0.00,VWS V14.01,2013-02-22 10:34:00,
2013-02-22 02:39:00,40.0,33.1,30.17,NW,321,0.0,0.0,76,0.00,,,0.00,VWS V14.01,2013-02-22 10:39:00,
2013-02-22 02:44:00,39.8,32.9,30.17,NW,321,0.0,0.0,76,0.00,,,0.00,VWS V14.01,2013-02-22 10:44:00,
2013-02-22 02:49:00,39.6,33.0,30.18,NW,321,0.0,0.0,77,0.00,,,0.00,VWS V14.01,2013-02-22 10:49:00,
2013-02-22 02:54:00,39.5,32.9,30.17,NW,321,0.0,0.0,77,0.00,,,0.00,VWS V14.01,2013-02-22 10:54:00,
2013-02-22 02:59:00,39.3,32.7,30.17,NW,321,0.0,0.0,77,0.00,,,0.00,VWS V14.01,2013-02-22 10:59:00,
2013-02-22 03:04:00,39.2,32.9,30.17,NW,321,0.0,0.0,78,0.00,,,0.00,VWS V14.01,2013-02-22 11:04:00,
2013-02-22 03:09:00,39.1,32.8,30.17,NW,321,0.0,0.0,78,0.00,,,0.00,VWS V14.01,2013-02-22 11:09:00,
2013-02-22 03:14:00,38.9,32.6,30.17,NW,321,0.0,0.0,78,0.00,,,0.00,VWS V14.01,2013-02-22 11:14:00,
2013-02-22 03:19:00,38.9,33.0,30.18,NW,321,0.0,0.0,79,0.00,,,0.00,VWS V14.01,2013-02-22 11:19:00,
2013-02-22 03:24:00,38.8,32.9,30.17,NW,321,0.0,0.0,79,0.00,,,0.00,VWS V14.01,2013-02-22 11:24:00,
2013-02-22 03:29:00,38.8,32.9,30.18,NW,321,0.0,0.0,79,0.00,,,0.00,VWS V14.01,2013-02-22 11:29:00,
2013-02-22 03:34:00,38.7,33.1,30.18,NW,321,0.0,0.0,80,0.00,,,0.00,VWS V14.01,2013-02-22 11:34:00,
2013-02-22 03:39:00,38.8,33.2,30.18,NW,321,0.0,0.0,80,0.00,,,0.00,VWS V14.01,2013-02-22 11:39:00,
2013-02-22 03:44:00,38.7,33.1,30.18,NW,321,0.0,0.0,80,0.00,,,0.00,VWS V14.01,2013-02-22 11:44:00,
2013-02-22 03:49:00,38.6,33.0,30.18,NW,321,0.0,0.0,80,0.00,,,0.00,VWS V14.01,2013-02-22 11:49:00,
2013-02-22 03:54:00,38.5,32.9,30.18,NW,321,0.0,0.0,80,0.00,,,0.00,VWS V14.01,2013-02-22 11:54:00,
2013-02-22 03:59:00,38.3,32.7,30.18,NW,321,0.0,0.0,80,0.00,,,0.00,VWS V14.01,2013-02-22 11:59:00,
2013-02-22 04:04:00,38.1,32.5,30.18,NW,321,0.0,0.0,80,0.00,,,0.00,VWS V14.01,2013-02-22 12:04:00,
2013-02-22 04:09:00,38.0,32.4,30.18,NW,321,0.0,0.0,80,0.00,,,0.00,VWS V14.01,2013-02-22 12:09:00,
2013-02-22 04:14:00,37.9,32.3,30.19,NW,321,0.0,0.0,80,0.00,,,0.00,VWS V14.01,2013-02-22 12:14:00,
2013-02-22 04:19:00,37.7,32.4,30.18,NW,321,0.0,0.0,81,0.00,,,0.00,VWS V14.01,2013-02-22 12:19:00,
2013-02-22 04:24:00,37.7,32.7,30.18,NW,321,0.0,0.0,82,0.00,,,0.00,VWS V14.01,2013-02-22 12:24:00,
2013-02-22 04:29:00,37.8,32.8,30.18,NW,321,0.0,0.0,82,0.00,,,0.00,VWS V14.01,2013-02-22 12:29:00,
2013-02-22 04:34:00,37.9,32.9,30.18,NW,321,0.0,0.0,82,0.00,,,0.00,VWS V14.01,2013-02-22 12:34:00,
2013-02-22 04:39:00,38.1,33.4,30.18,NW,321,0.0,0.0,83,0.00,,,0.00,VWS V14.01,2013-02-22 12:39:00,
2013-02-22 04:44:00,38.2,33.5,30.19,NW,321,0.0,0.0,83,0.00,,,0.00,VWS V14.01,2013-02-22 12:44:00,
2013-02-22 04:49:00,38.1,33.4,30.19,NW,321,0.0,0.0,83,0.00,,,0.00,VWS V14.01,2013-02-22 12:49:00,
2013-02-22 04:54:00,38.1,33.1,30.19,NW,321,0.0,0.0,82,0.00,,,0.00,VWS V14.01,2013-02-22 12:54:00,
2013-02-22 04:59:00,38.0,33.0,30.19,NW,321,0.0,0.0,82,0.00,,,0.00,VWS V14.01,2013-02-22 12:59:00,
2013-02-22 05:04:00,37.9,32.9,30.19,NW,321,0.0,0.0,82,0.00,,,0.00,VWS V14.01,2013-02-22 13:04:00,
2013-02-22 05:09:00,37.7,32.7,30.19,NW,321,0.0,0.0,82,0.00,,,0.00,VWS V14.01,2013-02-22 13:09:00,
2013-02-22 05:14:00,37.5,32.5,30.20,NW,321,0.0,0.0,82,0.00,,,0.00,VWS V14.01,2013-02-22 13:14:00,
2013-02-22 05:19:00,37.2,32.2,30.20,NW,321,0.0,0.0,82,0.00,,,0.00,VWS V14.01,2013-02-22 13:19:00,
2013-02-22 05:24:00,37.0,32.3,30.20,NW,321,0.0,0.0,83,0.00,,,0.00,VWS V14.01,2013-02-22 13:24:00,
2013-02-22 05:28:00,36.9,32.2,30.21,NW,321,0.0,0.0,83,0.00,,,0.00,VWS V14.01,2013-02-22 13:28:00,
2013-02-22 05:33:00,36.8,32.1,30.21,NW,321,0.0,0.0,83,0.00,,,0.00,VWS V14.01,2013-02-22 13:33:00,
2013-02-22 05:38:00,36.6,32.2,30.20,NW,321,0.0,0.0,84,0.00,,,0.00,VWS V14.01,2013-02-22 13:38:00,
2013-02-22 05:43:00,36.5,32.1,30.20,NW,321,0.0,0.0,84,0.00,,,0.00,VWS V14.01,2013-02-22 13:43:00,
2013-02-22 05:48:00,36.5,32.1,30.21,NW,321,0.0,0.0,84,0.00,,,0.00,VWS V14.01,2013-02-22 13:48:00,
2013-02-22 05:53:00,36.4,32.0,30.21,NW,321,0.0,0.0,84,0.00,,,0.00,VWS V14.01,2013-02-22 13:53:00,
2013-02-22 05:58:00,36.2,31.8,30.21,NW,321,0.0,0.0,84,0.00,,,0.00,VWS V14.01,2013-02-22 13:58:00,
2013-02-22 06:03:00,36.1,31.7,30.21,NW,321,0.0,0.0,84,0.00,,,0.00,VWS V14.01,2013-02-22 14:03:00,
2013-02-22 06:08:00,36.0,31.6,30.22,NW,321,0.0,0.0,84,0.00,,,0.00,VWS V14.01,2013-02-22 14:08:00,
2013-02-22 06:13:00,35.9,31.8,30.22,NW,321,0.0,0.0,85,0.00,,,0.00,VWS V14.01,2013-02-22 14:13:00,
2013-02-22 06:18:00,35.9,31.8,30.22,NW,321,0.0,0.0,85,0.00,,,0.00,VWS V14.01,2013-02-22 14:18:00,
2013-02-22 06:23:00,35.8,31.7,30.22,NW,321,0.0,0.0,85,0.00,,,0.00,VWS V14.01,2013-02-22 14:23:00,
2013-02-22 06:28:00,35.7,31.6,30.22,NW,321,0.0,0.0,85,0.00,,,0.00,VWS V14.01,2013-02-22 14:28:00,
2013-02-22 06:33:00,35.5,31.5,30.22,NW,321,0.0,0.0,85,0.00,,,0.00,VWS V14.01,2013-02-22 14:33:00,
2013-02-22 06:38:00,35.3,31.5,30.22,NW,321,0.0,0.0,86,0.00,,,0.00,VWS V14.01,2013-02-22 14:38:00,
2013-02-22 06:43:00,35.2,31.4,30.22,NW,321,0.0,0.0,86,0.00,,,0.00,VWS V14.01,2013-02-22 14:43:00,
2013-02-22 06:48:00,35.0,31.2,30.22,NW,321,0.0,0.0,86,0.00,,,0.00,VWS V14.01,2013-02-22 14:48:00,
2013-02-22 06:53:00,34.9,31.1,30.22,NW,321,0.0,0.0,86,0.00,,,0.00,VWS V14.01,2013-02-22 14:53:00,
2013-02-22 06:58:00,34.8,31.0,30.23,NW,321,0.0,0.0,86,0.00,,,0.00,VWS V14.01,2013-02-22 14:58:00,
2013-02-22 07:03:00,34.7,31.0,30.22,NW,321,0.0,0.0,86,0.00,,,0.00,VWS V14.01,2013-02-22 15:03:00,
2013-02-22 07:08:00,34.6,30.9,30.23,NW,321,0.0,0.0,86,0.00,,,0.00,VWS V14.01,2013-02-22 15:08:00,
2013-02-22 07:13:00,34.8,31.3,30.23,NW,321,0.0,0.0,87,0.00,,,0.00,VWS V14.01,2013-02-22 15:13:00,
2013-02-22 07:18:00,35.0,31.5,30.23,NW,321,0.0,0.0,87,0.00,,,0.00,VWS V14.01,2013-02-22 15:18:00,
2013-02-22 07:23:00,35.3,31.8,30.23,NW,321,0.0,0.0,87,0.00,,,0.00,VWS V14.01,2013-02-22 15:23:00,
2013-02-22 07:28:00,35.5,32.0,30.23,NW,321,0.0,0.0,87,0.00,,,0.00,VWS V14.01,2013-02-22 15:28:00,
2013-02-22 07:33:00,36.2,33.0,30.23,NW,321,0.0,0.0,88,0.00,,,0.00,VWS V14.01,2013-02-22 15:33:00,
2013-02-22 07:38:00,37.0,33.8,30.23,NW,321,0.0,0.0,88,0.00,,,0.00,VWS V14.01,2013-02-22 15:38:00,
2013-02-22 07:43:00,37.9,34.7,30.24,NW,321,0.0,0.0,88,0.00,,,0.00,VWS V14.01,2013-02-22 15:43:00,
2013-02-22 07:48:00,38.7,35.2,30.24,NW,321,0.0,0.0,87,0.00,,,0.00,VWS V14.01,2013-02-22 15:48:00,
2013-02-22 07:53:00,39.3,35.5,30.24,NW,321,0.0,0.0,86,0.00,,,0.00,VWS V14.01,2013-02-22 15:53:00,
2013-02-22 07:58:00,39.9,35.8,30.24,NW,321,0.0,0.0,85,0.00,,,0.00,VWS V14.01,2013-02-22 15:58:00,
2013-02-22 08:03:00,40.4,36.0,30.23,NW,321,0.0,0.0,84,0.00,,,0.00,VWS V14.01,2013-02-22 16:03:00,
2013-02-22 08:08:00,41.3,36.5,30.24,NW,321,0.0,0.0,83,0.00,,,0.00,VWS V14.01,2013-02-22 16:08:00,
2013-02-22 08:13:00,41.9,36.5,30.24,NW,321,1.0,4.0,81,0.00,,,0.00,VWS V14.01,2013-02-22 16:13:00,
2013-02-22 08:18:00,42.4,36.7,30.25,NW,321,0.0,4.0,80,0.00,,,0.00,VWS V14.01,2013-02-22 16:18:00,
2013-02-22 08:23:00,42.5,36.5,30.25,NW,321,0.0,4.0,79,0.00,,,0.00,VWS V14.01,2013-02-22 16:23:00,
2013-02-22 08:28:00,43.1,36.7,30.25,NW,321,0.0,4.0,78,0.00,,,0.00,VWS V14.01,2013-02-22 16:28:00,
2013-02-22 08:33:00,43.5,36.8,30.25,NW,321,0.0,4.0,77,0.00,,,0.00,VWS V14.01,2013-02-22 16:33:00,
2013-02-22 08:38:00,43.7,36.6,30.25,NW,321,0.0,4.0,76,0.00,,,0.00,VWS V14.01,2013-02-22 16:38:00,
2013-02-22 08:43:00,44.2,37.1,30.25,NW,321,0.0,4.0,76,0.00,,,0.00,VWS V14.01,2013-02-22 16:43:00,
2013-02-22 08:48:00,44.7,37.3,30.25,NW,321,0.0,4.0,75,0.00,,,0.00,VWS V14.01,2013-02-22 16:48:00,
2013-02-22 08:53:00,45.2,37.4,30.25,NW,321,0.0,4.0,74,0.00,,,0.00,VWS V14.01,2013-02-22 16:53:00,
2013-02-22 08:58:00,45.7,37.9,30.25,NW,321,0.0,4.0,74,0.00,,,0.00,VWS V14.01,2013-02-22 16:58:00,
2013-02-22 09:03:00,46.3,38.1,30.25,NW,321,0.0,0.0,73,0.00,,,0.00,VWS V14.01,2013-02-22 17:03:00,
2013-02-22 09:08:00,46.8,38.3,30.25,NW,321,0.0,5.0,72,0.00,,,0.00,VWS V14.01,2013-02-22 17:08:00,
2013-02-22 09:13:00,47.2,38.3,30.25,NW,321,0.0,5.0,71,0.00,,,0.00,VWS V14.01,2013-02-22 17:13:00,
2013-02-22 09:18:00,47.6,38.3,30.25,NW,321,0.0,5.0,70,0.00,,,0.00,VWS V14.01,2013-02-22 17:18:00,
2013-02-22 09:23:00,48.1,38.8,30.26,NW,321,2.0,5.0,70,0.00,,,0.00,VWS V14.01,2013-02-22 17:23:00,
2013-02-22 09:28:00,48.3,38.2,30.26,NW,321,0.0,5.0,68,0.00,,,0.00,VWS V14.01,2013-02-22 17:28:00,
2013-02-22 09:33:00,48.6,38.5,30.26,NW,321,0.0,5.0,68,0.00,,,0.00,VWS V14.01,2013-02-22 17:33:00,
2013-02-22 09:38:00,49.0,38.9,30.26,NW,321,3.0,5.0,68,0.00,,,0.00,VWS V14.01,2013-02-22 17:38:00,
2013-02-22 09:43:00,49.4,38.9,30.25,NW,321,0.0,5.0,67,0.00,,,0.00,VWS V14.01,2013-02-22 17:43:00,
2013-02-22 09:48:00,49.8,39.3,30.25,NW,321,3.0,5.0,67,0.00,,,0.00,VWS V14.01,2013-02-22 17:48:00,
2013-02-22 09:53:00,50.3,39.8,30.25,NW,321,0.0,5.0,67,0.00,,,0.00,VWS V14.01,2013-02-22 17:53:00,
2013-02-22 09:58:00,50.6,39.7,30.25,NW,321,0.0,6.0,66,0.00,,,0.00,VWS V14.01,2013-02-22 17:58:00,
2013-02-22 10:03:00,51.0,39.7,30.25,NW,321,2.0,3.0,65,0.00,,,0.00,VWS V14.01,2013-02-22 18:03:00,
2013-02-22 10:08:00,51.3,39.5,30.25,NW,321,4.0,5.0,64,0.00,,,0.00,VWS V14.01,2013-02-22 18:08:00,
2013-02-22 10:13:00,51.6,39.8,30.25,NW,321,0.0,5.0,64,0.00,,,0.00,VWS V14.01,2013-02-22 18:13:00,
2013-02-22 10:18:00,52.2,40.0,30.25,NW,321,0.0,5.0,63,0.00,,,0.00,VWS V14.01,2013-02-22 18:18:00,
2013-02-22 10:23:00,52.7,40.1,30.25,NW,321,0.0,5.0,62,0.00,,,0.00,VWS V14.01,2013-02-22 18:23:00,
2013-02-22 10:28:00,53.2,40.5,30.25,NW,321,0.0,5.0,62,0.00,,,0.00,VWS V14.01,2013-02-22 18:28:00,
2013-02-22 10:33:00,53.6,40.5,30.25,NW,321,0.0,5.0,61,0.00,,,0.00,VWS V14.01,2013-02-22 18:33:00,
2013-02-22 10:38:00,53.9,40.3,30.25,NW,321,0.0,5.0,60,0.00,,,0.00,VWS V14.01,2013-02-22 18:38:00,
2013-02-22 10:43:00,54.2,39.8,30.25,NW,321,0.0,5.0,58,0.00,,,0.00,VWS V14.01,2013-02-22 18:43:00,
2013-02-22 10:48:00,54.5,40.5,30.25,NW,321,0.0,5.0,59,0.00,,,0.00,VWS V14.01,2013-02-22 18:48:00,
2013-02-22 10:52:00,54.7,40.2,30.25,NW,321,0.0,5.0,58,0.00,,,0.00,VWS V14.01,2013-02-22 18:52:00,
2013-02-22 10:57:00,54.8,40.3,30.25,NW,321,0.0,5.0,58,0.00,,,0.00,VWS V14.01,2013-02-22 18:57:00,
2013-02-22 11:02:00,54.9,39.5,30.25,NW,321,0.0,0.0,56,0.00,,,0.00,VWS V14.01,2013-02-22 19:02:00,
2013-02-22 11:07:00,55.3,39.9,30.25,NW,321,0.0,0.0,56,0.00,,,0.00,VWS V14.01,2013-02-22 19:07:00,
2013-02-22 11:12:00,55.8,39.4,30.25,NW,321,0.0,0.0,54,0.00,,,0.00,VWS V14.01,2013-02-22 19:12:00,
2013-02-22 11:17:00,55.9,39.0,30.25,NW,321,0.0,0.0,53,0.00,,,0.00,VWS V14.01,2013-02-22 19:17:00,
2013-02-22 11:22:00,55.8,38.9,30.25,NW,321,0.0,0.0,53,0.00,,,0.00,VWS V14.01,2013-02-22 19:22:00,
2013-02-22 11:27:00,56.1,39.2,30.25,NW,321,0.0,2.0,53,0.00,,,0.00,VWS V14.01,2013-02-22 19:27:00,
2013-02-22 11:32:00,56.4,39.0,30.25,NW,321,0.0,2.0,52,0.00,,,0.00,VWS V14.01,2013-02-22 19:32:00,
2013-02-22 11:37:00,56.9,39.5,30.25,NW,321,0.0,2.0,52,0.00,,,0.00,VWS V14.01,2013-02-22 19:37:00,
2013-02-22 11:42:00,57.3,39.8,30.24,NW,321,0.0,2.0,52,0.00,,,0.00,VWS V14.01,2013-02-22 19:42:00,
2013-02-22 11:47:00,57.5,39.5,30.24,NW,321,0.0,2.0,51,0.00,,,0.00,VWS V14.01,2013-02-22 19:47:00,
2013-02-22 11:52:00,57.5,39.5,30.24,NW,321,0.0,2.0,51,0.00,,,0.00,VWS V14.01,2013-02-22 19:52:00,
2013-02-22 11:57:00,57.8,39.3,30.24,NW,321,0.0,4.0,50,0.00,,,0.00,VWS V14.01,2013-02-22 19:57:00,
2013-02-22 12:02:00,57.7,39.2,30.24,NW,321,0.0,0.0,50,0.00,,,0.00,VWS V14.01,2013-02-22 20:02:00,
2013-02-22 12:07:00,58.3,38.7,30.24,NW,321,0.0,1.0,48,0.00,,,0.00,VWS V14.01,2013-02-22 20:07:00,
2013-02-22 12:12:00,58.6,39.5,30.24,NW,321,0.0,3.0,49,0.00,,,0.00,VWS V14.01,2013-02-22 20:12:00,
2013-02-22 12:17:00,58.3,38.7,30.23,NW,321,0.0,3.0,48,0.00,,,0.00,VWS V14.01,2013-02-22 20:17:00,
2013-02-22 12:22:00,58.6,39.0,30.23,NW,321,0.0,3.0,48,0.00,,,0.00,VWS V14.01,2013-02-22 20:22:00,
2013-02-22 12:27:00,58.6,39.0,30.23,NW,321,0.0,3.0,48,0.00,,,0.00,VWS V14.01,2013-02-22 20:27:00,
2013-02-22 12:32:00,59.0,38.8,30.23,NW,321,0.0,3.0,47,0.00,,,0.00,VWS V14.01,2013-02-22 20:32:00,
2013-02-22 12:37:00,59.1,38.4,30.23,NW,321,0.0,5.0,46,0.00,,,0.00,VWS V14.01,2013-02-22 20:37:00,
2013-02-22 12:42:00,59.0,37.7,30.23,NW,321,0.0,5.0,45,0.00,,,0.00,VWS V14.01,2013-02-22 20:42:00,
2013-02-22 12:47:00,58.7,39.6,30.23,NW,321,0.0,5.0,49,0.00,,,0.00,VWS V14.01,2013-02-22 20:47:00,
2013-02-22 12:52:00,59.0,40.4,30.22,NW,321,0.0,5.0,50,0.00,,,0.00,VWS V14.01,2013-02-22 20:52:00,
2013-02-22 12:57:00,59.6,42.0,30.22,NW,321,0.0,5.0,52,0.00,,,0.00,VWS V14.01,2013-02-22 20:57:00,
2013-02-22 13:02:00,60.1,41.9,30.21,NW,321,0.0,5.0,51,0.00,,,0.00,VWS V14.01,2013-02-22 21:02:00,
2013-02-22 13:07:00,60.5,41.3,30.21,NW,321,0.0,5.0,49,0.00,,,0.00,VWS V14.01,2013-02-22 21:07:00,
2013-02-22 13:12:00,60.7,40.9,30.21,NW,321,0.0,6.0,48,0.00,,,0.00,VWS V14.01,2013-02-22 21:12:00,
2013-02-22 13:17:00,60.5,41.3,30.21,NW,321,0.0,6.0,49,0.00,,,0.00,VWS V14.01,2013-02-22 21:17:00,
2013-02-22 13:22:00,61.1,41.8,30.20,NW,321,0.0,6.0,49,0.00,,,0.00,VWS V14.01,2013-02-22 21:22:00,
2013-02-22 13:27:00,61.1,41.3,30.20,NW,321,2.0,6.0,48,0.00,,,0.00,VWS V14.01,2013-02-22 21:27:00,
2013-02-22 13:32:00,61.6,40.6,30.20,NW,321,0.0,6.0,46,0.00,,,0.00,VWS V14.01,2013-02-22 21:32:00,
2013-02-22 13:37:00,61.5,40.5,30.20,NW,321,0.0,6.0,46,0.00,,,0.00,VWS V14.01,2013-02-22 21:37:00,
2013-02-22 13:42:00,61.6,40.1,30.19,NW,321,2.0,6.0,45,0.00,,,0.00,VWS V14.01,2013-02-22 21:42:00,
2013-02-22 13:47:00,61.8,39.7,30.19,NW,321,0.0,6.0,44,0.00,,,0.00,VWS V14.01,2013-02-22 21:47:00,
2013-02-22 13:52:00,62.1,39.4,30.19,NW,321,0.0,6.0,43,0.00,,,0.00,VWS V14.01,2013-02-22 21:52:00,
2013-02-22 13:57:00,62.2,38.8,30.19,NW,321,0.0,6.0,42,0.00,,,0.00,VWS V14.01,2013-02-22 21:57:00,
2013-02-22 14:02:00,62.4,39.6,30.18,NW,321,0.0,6.0,43,0.00,,,0.00,VWS V14.01,2013-02-22 22:02:00,
2013-02-22 14:07:00,63.0,40.2,30.18,NW,321,0.0,0.0,43,0.00,,,0.00,VWS V14.01,2013-02-22 22:07:00,
2013-02-22 14:12:00,63.5,40.0,30.18,NW,321,0.0,1.0,42,0.00,,,0.00,VWS V14.01,2013-02-22 22:12:00,
2013-02-22 14:17:00,63.8,40.3,30.18,NW,321,0.0,1.0,42,0.00,,,0.00,VWS V14.01,2013-02-22 22:17:00,
2013-02-22 14:22:00,64.0,39.8,30.18,NW,321,0.0,1.0,41,0.00,,,0.00,VWS V14.01,2013-02-22 22:22:00,
2013-02-22 14:27:00,64.3,38.8,30.18,NW,321,4.0,5.0,39,0.00,,,0.00,VWS V14.01,2013-02-22 22:27:00,
2013-02-22 14:32:00,64.3,38.2,30.18,NW,321,0.0,5.0,38,0.00,,,0.00,VWS V14.01,2013-02-22 22:32:00,
2013-02-22 14:37:00,64.3,38.8,30.18,NW,321,0.0,5.0,39,0.00,,,0.00,VWS V14.01,2013-02-22 22:37:00,
2013-02-22 14:42:00,64.7,38.5,30.18,NW,321,0.0,5.0,38,0.00,,,0.00,VWS V14.01,2013-02-22 22:42:00,
2013-02-22 14:47:00,64.6,37.8,30.18,NW,321,0.0,5.0,37,0.00,,,0.00,VWS V14.01,2013-02-22 22:47:00,
2013-02-22 14:52:00,64.7,38.5,30.17,NW,321,0.0,5.0,38,0.00,,,0.00,VWS V14.01,2013-02-22 22:52:00,
2013-02-22 14:57:00,64.7,37.8,30.17,NW,321,0.0,5.0,37,0.00,,,0.00,VWS V14.01,2013-02-22 22:57:00,
2013-02-22 15:02:00,64.7,37.8,30.17,NW,321,0.0,5.0,37,0.00,,,0.00,VWS V14.01,2013-02-22 23:02:00,
2013-02-22 15:07:00,65.0,38.8,30.17,NW,321,5.0,5.0,38,0.00,,,0.00,VWS V14.01,2013-02-22 23:07:00,
2013-02-22 15:12:00,65.2,39.0,30.17,NW,319,0.0,9.0,38,0.00,,,0.00,VWS V14.01,2013-02-22 23:12:00,
2013-02-22 15:17:00,65.2,39.0,30.17,NW,319,0.0,9.0,38,0.00,,,0.00,VWS V14.01,2013-02-22 23:17:00,
2013-02-22 15:22:00,65.1,38.2,30.17,NW,319,0.0,9.0,37,0.00,,,0.00,VWS V14.01,2013-02-22 23:22:00,
2013-02-22 15:27:00,65.1,38.9,30.16,NW,319,0.0,9.0,38,0.00,,,0.00,VWS V14.01,2013-02-22 23:27:00,
2013-02-22 15:32:00,65.4,38.5,30.16,NW,319,0.0,9.0,37,0.00,,,0.00,VWS V14.01,2013-02-22 23:32:00,
2013-02-22 15:37:00,65.7,38.7,30.16,NW,319,0.0,9.0,37,0.00,,,0.00,VWS V14.01,2013-02-22 23:37:00,
2013-02-22 15:42:00,65.9,38.9,30.16,NW,319,0.0,9.0,37,0.00,,,0.00,VWS V14.01,2013-02-22 23:42:00,
2013-02-22 15:47:00,66.2,38.5,30.16,NW,319,0.0,9.0,36,0.00,,,0.00,VWS V14.01,2013-02-22 23:47:00,
2013-02-22 15:52:00,66.1,39.1,30.16,NW,317,5.0,9.0,37,0.00,,,0.00,VWS V14.01,2013-02-22 23:52:00,
2013-02-22 15:57:00,65.7,38.7,30.16,NW,316,0.0,9.0,37,0.00,,,0.00,VWS V14.01,2013-02-22 23:57:00,
2013-02-22 16:02:00,65.3,38.4,30.16,NW,313,0.0,9.0,37,0.00,,,0.00,VWS V14.01,2013-02-23 00:02:00,
2013-02-22 16:07:00,65.3,39.1,30.17,NW,313,0.0,2.0,38,0.00,,,0.00,VWS V14.01,2013-02-23 00:07:00,
2013-02-22 16:12:00,65.4,39.2,30.16,NW,313,0.0,4.0,38,0.00,,,0.00,VWS V14.01,2013-02-23 00:12:00,
2013-02-22 16:17:00,65.4,39.8,30.17,NW,310,3.0,7.0,39,0.00,,,0.00,VWS V14.01,2013-02-23 00:17:00,
2013-02-22 16:22:00,65.3,39.7,30.17,NW,307,0.0,7.0,39,0.00,,,0.00,VWS V14.01,2013-02-23 00:22:00,
2013-02-22 16:27:00,65.3,40.4,30.16,NW,306,0.0,7.0,40,0.00,,,0.00,VWS V14.01,2013-02-23 00:27:00,
2013-02-22 16:32:00,65.1,40.2,30.16,NW,304,6.0,7.0,40,0.00,,,0.00,VWS V14.01,2013-02-23 00:32:00,
2013-02-22 16:37:00,64.8,39.3,30.16,NW,304,0.0,7.0,39,0.00,,,0.00,VWS V14.01,2013-02-23 00:37:00,
2013-02-22 16:42:00,64.6,39.1,30.16,WNW,297,1.0,9.0,39,0.00,,,0.00,VWS V14.01,2013-02-23 00:42:00,
2013-02-22 16:47:00,64.4,38.9,30.16,SW,227,2.0,10.0,39,0.00,,,0.00,VWS V14.01,2013-02-23 00:47:00,
2013-02-22 16:52:00,64.1,39.3,30.16,SSW,204,4.0,10.0,40,0.00,,,0.00,VWS V14.01,2013-02-23 00:52:00,
2013-02-22 16:57:00,63.8,39.7,30.16,SSW,196,4.0,10.0,41,0.00,,,0.00,VWS V14.01,2013-02-23 00:57:00,
2013-02-22 17:02:00,63.6,40.1,30.16,South,191,1.0,10.0,42,0.00,,,0.00,VWS V14.01,2013-02-23 01:02:00,
2013-02-22 17:07:00,63.2,40.3,30.15,South,177,6.0,10.0,43,0.00,,,0.00,VWS V14.01,2013-02-23 01:07:00,
2013-02-22 17:12:00,62.9,40.7,30.15,South,172,2.0,10.0,44,0.00,,,0.00,VWS V14.01,2013-02-23 01:12:00,
2013-02-22 17:17:00,62.6,41.5,30.15,SSE,168,0.0,10.0,46,0.00,,,0.00,VWS V14.01,2013-02-23 01:17:00,
2013-02-22 17:22:00,62.5,40.9,30.15,SE,144,10.0,12.0,45,0.00,,,0.00,VWS V14.01,2013-02-23 01:22:00,
2013-02-22 17:27:00,62.1,41.1,30.15,SE,139,7.0,12.0,46,0.00,,,0.00,VWS V14.01,2013-02-23 01:27:00,
2013-02-22 17:32:00,61.6,40.6,30.15,SE,133,10.0,13.0,46,0.00,,,0.00,VWS V14.01,2013-02-23 01:32:00,
2013-02-22 17:36:00,61.2,40.8,30.15,SE,136,2.0,13.0,47,0.00,,,0.00,VWS V14.01,2013-02-23 01:36:00,
2013-02-22 17:41:00,60.8,41.0,30.15,SE,134,6.0,14.0,48,0.00,,,0.00,VWS V14.01,2013-02-23 01:41:00,
2013-02-22 17:46:00,60.5,40.7,30.15,SE,133,3.0,14.0,48,0.00,,,0.00,VWS V14.01,2013-02-23 01:46:00,
2013-02-22 17:51:00,60.2,41.0,30.15,SE,134,2.0,14.0,49,0.00,,,0.00,VWS V14.01,2013-02-23 01:51:00,
2013-02-22 17:56:00,60.0,40.8,30.15,SE,135,3.0,14.0,49,0.00,,,0.00,VWS V14.01,2013-02-23 01:56:00,
2013-02-22 18:01:00,59.7,40.5,30.15,SE,132,4.0,14.0,49,0.00,,,0.00,VWS V14.01,2013-02-23 02:01:00,
2013-02-22 18:06:00,59.4,40.8,30.15,SE,134,9.0,13.0,50,0.00,,,0.00,VWS V14.01,2013-02-23 02:06:00,
2013-02-22 18:11:00,59.2,40.6,30.15,SE,134,5.0,13.0,50,0.00,,,0.00,VWS V14.01,2013-02-23 02:11:00,
2013-02-22 18:16:00,59.0,40.4,30.15,SE,138,6.0,14.0,50,0.00,,,0.00,VWS V14.01,2013-02-23 02:16:00,
2013-02-22 18:21:00,59.0,40.9,30.14,SE,135,6.0,14.0,51,0.00,,,0.00,VWS V14.01,2013-02-23 02:21:00,
2013-02-22 18:26:00,58.6,41.0,30.15,SE,133,10.0,16.0,52,0.00,,,0.00,VWS V14.01,2013-02-23 02:26:00,
2013-02-22 18:31:00,58.4,40.9,30.15,SE,132,12.0,16.0,52,0.00,,,0.00,VWS V14.01,2013-02-23 02:31:00,
2013-02-22 18:36:00,58.2,41.2,30.15,SE,133,3.0,16.0,53,0.00,,,0.00,VWS V14.01,2013-02-23 02:36:00,
2013-02-22 18:41:00,58.0,41.0,30.15,SE,136,3.0,16.0,53,0.00,,,0.00,VWS V14.01,2013-02-23 02:41:00,
2013-02-22 18:46:00,57.8,40.8,30.15,SE,136,4.0,16.0,53,0.00,,,0.00,VWS V14.01,2013-02-23 02:46:00,
2013-02-22 18:51:00,57.6,41.1,30.16,SE,138,1.0,16.0,54,0.00,,,0.00,VWS V14.01,2013-02-23 02:51:00,
2013-02-22 18:56:00,57.5,41.0,30.16,SE,139,3.0,16.0,54,0.00,,,0.00,VWS V14.01,2013-02-23 02:56:00,
2013-02-22 19:01:00,57.3,41.3,30.16,SE,139,2.0,16.0,55,0.00,,,0.00,VWS V14.01,2013-02-23 03:01:00,
2013-02-22 19:06:00,57.2,41.2,30.16,SE,140,6.0,6.0,55,0.00,,,0.00,VWS V14.01,2013-02-23 03:06:00,
2013-02-22 19:11:00,57.1,41.1,30.16,SE,140,2.0,9.0,55,0.00,,,0.00,VWS V14.01,2013-02-23 03:11:00,
2013-02-22 19:16:00,56.9,40.9,30.17,SE,140,0.0,9.0,55,0.00,,,0.00,VWS V14.01,2013-02-23 03:16:00,
2013-02-22 19:21:00,56.8,40.8,30.16,SE,140,3.0,9.0,55,0.00,,,0.00,VWS V14.01,2013-02-23 03:21:00,
2013-02-22 19:26:00,56.7,40.7,30.17,SE,140,3.0,9.0,55,0.00,,,0.00,VWS V14.01,2013-02-23 03:26:00,
2013-02-22 19:31:00,56.6,40.6,30.17,SE,144,5.0,11.0,55,0.00,,,0.00,VWS V14.01,2013-02-23 03:31:00,
2013-02-22 19:36:00,56.6,40.6,30.16,SE,144,4.0,11.0,55,0.00,,,0.00,VWS V14.01,2013-02-23 03:36:00,
2013-02-22 19:41:00,56.5,40.5,30.16,SE,144,6.0,11.0,55,0.00,,,0.00,VWS V14.01,2013-02-23 03:41:00,
2013-02-22 19:46:00,56.4,40.9,30.16,SE,144,4.0,11.0,56,0.00,,,0.00,VWS V14.01,2013-02-23 03:46:00,
2013-02-22 19:51:00,56.3,40.8,30.16,SE,144,6.0,11.0,56,0.00,,,0.00,VWS V14.01,2013-02-23 03:51:00,
2013-02-22 19:56:00,56.1,40.6,30.15,SE,143,5.0,11.0,56,0.00,,,0.00,VWS V14.01,2013-02-23 03:56:00,
2013-02-22 20:01:00,56.0,41.0,30.15,SSE,148,4.0,12.0,57,0.00,,,0.00,VWS V14.01,2013-02-23 04:01:00,
2013-02-22 20:06:00,55.9,40.9,30.15,SE,146,12.0,12.0,57,0.00,,,0.00,VWS V14.01,2013-02-23 04:06:00,
2013-02-22 20:11:00,55.8,41.3,30.15,SE,146,1.0,12.0,58,0.00,,,0.00,VWS V14.01,2013-02-23 04:11:00,
2013-02-22 20:16:00,55.8,41.3,30.16,SSE,152,4.0,12.0,58,0.00,,,0.00,VWS V14.01,2013-02-23 04:16:00,
2013-02-22 20:21:00,55.9,40.9,30.14,SSE,161,4.0,13.0,57,0.00,,,0.00,VWS V14.01,2013-02-23 04:21:00,
2013-02-22 20:26:00,55.9,40.9,30.14,SSE,158,6.0,13.0,57,0.00,,,0.00,VWS V14.01,2013-02-23 04:26:00,
2013-02-22 20:31:00,55.8,40.8,30.13,SSE,157,4.0,13.0,57,0.00,,,0.00,VWS V14.01,2013-02-23 04:31:00,
2013-02-22 20:36:00,55.8,40.4,30.14,SSE,157,4.0,13.0,56,0.00,,,0.00,VWS V14.01,2013-02-23 04:36:00,
2013-02-22 20:41:00,55.7,40.3,30.14,SSE,157,6.0,13.0,56,0.00,,,0.00,VWS V14.01,2013-02-23 04:41:00,
2013-02-22 20:46:00,55.7,40.3,30.15,SSE,157,0.0,13.0,56,0.00,,,0.00,VWS V14.01,2013-02-23 04:46:00,
2013-02-22 20:51:00,55.6,40.2,30.15,SSE,157,2.0,13.0,56,0.00,,,0.00,VWS V14.01,2013-02-23 04:51:00,
2013-02-22 20:56:00,55.5,40.1,30.16,SSE,157,2.0,13.0,56,0.00,,,0.00,VWS V14.01,2013-02-23 04:56:00,
2013-02-22 21:00:00,55.5,40.1,30.17,SSE,158,0.0,13.0,56,0.00,,,0.00,VWS V14.01,2013-02-23 05:00:00,
2013-02-22 21:05:00,55.4,40.0,30.17,SSE,158,0.0,0.0,56,0.00,,,0.00,VWS V14.01,2013-02-23 05:05:00,
2013-02-22 21:10:00,55.4,40.0,30.18,SSE,158,0.0,6.0,56,0.00,,,0.00,VWS V14.01,2013-02-23 05:10:00,
2013-02-22 21:15:00,55.4,40.0,30.18,SSE,158,0.0,6.0,56,0.00,,,0.00,VWS V14.01,2013-02-23 05:15:00,
2013-02-22 21:20:00,55.4,40.0,30.18,SSE,158,4.0,7.0,56,0.00,,,0.00,VWS V14.01,2013-02-23 05:20:00,
2013-02-22 21:25:00,55.5,40.5,30.18,SSE,158,2.0,7.0,57,0.00,,,0.00,VWS V14.01,2013-02-23 05:25:00,
2013-02-22 21:30:00,55.5,40.5,30.18,SSE,158,0.0,7.0,57,0.00,,,0.00,VWS V14.01,2013-02-23 05:30:00,
2013-02-22 21:35:00,55.5,40.5,30.17,SSE,155,2.0,11.0,57,0.00,,,0.00,VWS V14.01,2013-02-23 05:35:00,
2013-02-22 21:40:00,55.5,40.5,30.17,SSE,155,1.0,11.0,57,0.00,,,0.00,VWS V14.01,2013-02-23 05:40:00,
2013-02-22 21:45:00,55.2,40.7,30.17,SSE,155,5.0,11.0,58,0.00,,,0.00,VWS V14.01,2013-02-23 05:45:00,
2013-02-22 21:50:00,55.1,41.0,30.17,SSE,159,7.0,13.0,59,0.00,,,0.00,VWS V14.01,2013-02-23 05:50:00,
2013-02-22 21:55:00,54.9,41.3,30.16,SSE,153,7.0,13.0,60,0.00,,,0.00,VWS V14.01,2013-02-23 05:55:00,
2013-02-22 22:00:00,54.7,41.5,30.17,SSE,157,0.0,13.0,61,0.00,,,0.00,VWS V14.01,2013-02-23 06:00:00,
2013-02-22 22:05:00,54.5,41.3,30.17,SSE,158,2.0,7.0,61,0.00,,,0.00,VWS V14.01,2013-02-23 06:05:00,
2013-02-22 22:10:00,54.3,41.6,30.16,SSE,158,4.0,9.0,62,0.00,,,0.00,VWS V14.01,2013-02-23 06:10:00,
2013-02-22 22:15:00,54.1,41.4,30.16,SSE,159,3.0,10.0,62,0.00,,,0.00,VWS V14.01,2013-02-23 06:15:00,
2013-02-22 22:20:00,53.9,41.2,30.17,SSE,159,2.0,10.0,62,0.00,,,0.00,VWS V14.01,2013-02-23 06:20:00,
2013-02-22 22:25:00,53.7,41.4,30.17,SSE,163,3.0,12.0,63,0.00,,,0.00,VWS V14.01,2013-02-23 06:25:00,
2013-02-22 22:30:00,53.6,41.7,30.17,SSE,164,4.0,12.0,64,0.00,,,0.00,VWS V14.01,2013-02-23 06:30:00,
2013-02-22 22:35:00,53.4,42.7,30.17,South,175,0.0,12.0,67,0.00,,,0.00,VWS V14.01,2013-02-23 06:35:00,
2013-02-22 22:40:00,53.3,42.6,30.18,South,172,5.0,12.0,67,0.00,,,0.00,VWS V14.01,2013-02-23 06:40:00,
2013-02-22 22:45:00,53.2,42.9,30.18,South,171,6.0,12.0,68,0.00,,,0.00,VWS V14.01,2013-02-23 06:45:00,
2013-02-22 22:50:00,53.2,42.9,30.18,South,178,5.0,12.0,68,0.00,,,0.00,VWS V14.01,2013-02-23 06:50:00,
2013-02-22 22:55:00,53.1,42.8,30.18,South,173,11.0,12.0,68,0.00,,,0.00,VWS V14.01,2013-02-23 06:55:00,
2013-02-22 23:00:00,52.9,42.6,30.18,South,169,6.0,12.0,68,0.00,,,0.00,VWS V14.01,2013-02-23 07:00:00,
2013-02-22 23:05:00,52.8,42.9,30.18,SSE,163,5.0,11.0,69,0.00,,,0.00,VWS V14.01,2013-02-23 07:05:00,
2013-02-22 23:10:00,52.7,42.8,30.18,SSE,164,2.0,11.0,69,0.00,,,0.00,VWS V14.01,2013-02-23 07:10:00,
2013-02-22 23:15:00,52.6,43.1,30.18,SSE,164,4.0,11.0,70,0.00,,,0.00,VWS V14.01,2013-02-23 07:15:00,
2013-02-22 23:20:00,52.5,43.0,30.18,SSE,163,6.0,11.0,70,0.00,,,0.00,VWS V14.01,2013-02-23 07:20:00,
2013-02-22 23:25:00,52.4,42.9,30.18,SSE,163,12.0,12.0,70,0.00,,,0.00,VWS V14.01,2013-02-23 07:25:00,
2013-02-22 23:30:00,52.4,42.9,30.18,South,169,6.0,13.0,70,0.00,,,0.00,VWS V14.01,2013-02-23 07:30:00,
2013-02-22 23:35:00,52.5,43.0,30.17,South,169,4.0,14.0,70,0.00,,,0.00,VWS V14.01,2013-02-23 07:35:00,
2013-02-22 23:40:00,52.5,43.4,30.18,South,169,7.0,14.0,71,0.00,,,0.00,VWS V14.01,2013-02-23 07:40:00,
2013-02-22 23:45:00,52.5,43.4,30.17,South,171,3.0,14.0,71,0.00,,,0.00,VWS V14.01,2013-02-23 07:45:00,
2013-02-22 23:50:00,52.5,43.4,30.17,South,169,5.0,14.0,71,0.00,,,0.00,VWS V14.01,2013-02-23 07:50:00,
2013-02-22 23:55:00,52.4,43.3,30.17,SSE,166,3.0,14.0,71,0.00,,,0.00,VWS V14.01,2013-02-23 07:55:00,